Location: Young's Pond
(41.2695°N, 72.7766°W)
Time: 16:40:57
(UTC-04:00)

Spot 4 - Visible Passes

Search period start: 30 April 2016 00:00
Search period end: 10 May 2016 00:00
Orbit: 704 x 725 km, 98.4° (Epoch: 29 April)

Date Brightness Start Highest point End Pass type
(mag) Time Alt. Az. Time Alt. Az. Time Alt. Az.
30 Apr 4.1 22:50:33 62° NNE 22:50:33 62° NNE 22:54:42 10° N visible
01 May 6.5 00:29:41 11° WNW 00:29:41 11° WNW 00:30:08 10° WNW visible
01 May 5.2 21:58:23 23° ENE 21:58:45 23° ENE 22:02:28 10° NNE visible
01 May 5.2 23:37:31 34° WNW 23:37:31 34° WNW 23:40:57 10° NNW visible
02 May 4.0 22:45:21 61° NE 22:45:21 61° NE 22:49:41 10° N visible
03 May 6.4 00:24:29 13° WNW 00:24:29 13° WNW 00:25:40 10° WNW visible
03 May 5.4 21:53:11 20° ENE 21:53:48 21° ENE 21:57:19 10° NNE visible
03 May 4.9 23:32:19 39° WNW 23:32:19 39° WNW 23:36:01 10° NNW visible
04 May 4.1 22:40:09 56° ENE 22:40:09 56° ENE 22:44:39 10° N visible
05 May 6.2 00:19:17 14° WNW 00:19:17 14° WNW 00:21:03 10° NW visible
05 May 5.5 21:47:59 18° ENE 21:48:51 19° ENE 21:52:08 10° NNE visible
05 May 4.6 23:27:07 45° WNW 23:27:07 45° WNW 23:31:05 10° NNW visible
06 May 4.2 22:34:57 50° ENE 22:34:59 50° ENE 22:39:36 10° N visible
07 May 6.1 00:14:05 16° W 00:14:05 16° W 00:16:21 10° NW visible
07 May 5.6 21:42:47 16° E 21:43:55 17° ENE 21:46:56 10° NNE visible
07 May 4.4 23:21:56 53° WNW 23:21:56 53° WNW 23:26:08 10° NNW visible
08 May 4.3 22:29:46 44° E 22:30:01 44° ENE 22:34:33 10° N visible
09 May 5.9 00:08:53 19° W 00:08:53 19° W 00:11:35 10° NW visible
09 May 5.7 21:37:36 14° E 21:38:59 15° ENE 21:41:41 10° NNE visible
09 May 4.1 23:16:44 61° W 23:16:44 61° W 23:21:11 10° NNW visible
